EW4353 Weather Reports


time (UTC)temp
C
wind
direction
speed
KPH
gust
KPH
rain 1hr
cm
rain 24hr
cm
rain mn
cm
humidity
%
barometer
mb
20260504044530 11 229 0.0 0.0 0.00 0.00 0.00 67 1000.0
20260504043028 11 229 0.0 0.0 0.00 0.00 0.00 67 1000.3
20260504041524 10 229 0.0 0.0 0.00 0.00 0.00 67 1000.4
20260504040023 11 229 0.0 0.0 0.00 0.00 0.00 66 1000.6
20260504034523 11 229 0.0 0.0 0.00 0.00 0.00 64 1000.7
20260504033022 11 229 0.0 0.0 0.00 0.00 0.00 64 1000.7
20260504031522 11 229 0.0 0.0 0.00 0.00 0.00 66 1000.7
20260504030021 12 229 0.0 0.0 0.00 0.00 0.00 63 1000.8
20260504024520 13 229 0.0 0.0 0.00 0.00 0.00 60 1001.0
20260504023019 12 229 0.0 0.0 0.00 0.00 0.00 61 1001.1
20260504021518 13 229 0.0 0.0 0.00 0.00 0.00 60 1000.9
20260504020032 15 229 0.0 0.0 0.00 0.00 0.00 56 1001.0
20260504014517 16 229 0.0 0.0 0.00 0.00 0.00 53 1001.1
20260504013019 17 229 0.0 0.0 0.00 0.00 0.00 49 1001.2
20260504011514 18 229 0.0 0.0 0.00 0.00 0.00 44 1001.4
20260504010013 19 229 0.0 0.0 0.00 0.00 0.00 43 1001.5
20260504004531 20 229 0.0 0.0 0.00 0.00 0.00 39 1001.6
20260504003010 20 229 0.0 0.0 0.00 0.00 0.00 38 1001.8
20260504001521 21 229 0.0 0.0 0.00 0.00 0.00 38 1002.2
20260504000006 21 229 0.0 0.0 0.00 0.00 0.00 35 1002.5
20260503234507 21 229 0.0 0.0 0.00 0.00 0.00 36 1002.8
20260503233004 21 229 0.0 0.0 0.00 0.00 0.00 34 1002.9
20260503231502 22 229 0.0 0.0 0.00 0.00 0.00 34 1003.2
20260503230113 22 229 0.0 0.0 0.00 0.00 0.00 33 1003.3
20260503224604 22 229 0.0 0.0 0.00 0.00 0.00 33 1003.6
20260503223112 22 229 0.0 0.0 0.00 0.00 0.00 34 1003.8
20260503221557 22 229 0.0 0.0 0.00 0.00 0.00 31 1004.1
20260503220057 22 229 0.0 0.0 0.00 0.00 0.00 32 1004.5
20260503214557 22 229 0.0 0.0 0.00 0.00 0.00 34 1004.7
20260503213050 22 229 0.0 0.0 0.00 0.00 0.00 33 1004.9
20260503211546 21 229 0.0 0.0 0.00 0.00 0.00 33 1005.3
20260503210044 21 229 0.0 0.0 0.00 0.00 0.00 32 1005.8
20260503204544 21 229 0.0 0.0 0.00 0.00 0.00 35 1006.0
20260503203039 21 229 0.0 0.0 0.00 0.00 0.00 35 1006.4
20260503201541 21 229 0.0 0.0 0.00 0.00 0.00 32 1006.7
20260503200036 21 229 0.0 0.0 0.00 0.00 0.00 36 1006.9
20260503194540 21 229 0.0 0.0 0.00 0.00 0.00 36 1007.1
20260503193032 21 229 0.0 0.0 0.00 0.00 0.00 35 1007.7
20260503191530 20 229 0.0 0.0 0.00 0.00 0.00 34 1007.8
20260503190037 20 229 0.0 0.0 0.00 0.00 0.00 35 1008.2
20260503184524 19 229 0.0 0.0 0.00 0.00 0.00 35 1008.6
20260503183021 19 229 0.0 0.0 0.00 0.00 0.00 35 1009.0
20260503181537 20 229 0.0 0.0 0.00 0.00 0.00 35 1009.2
20260503180029 19 229 0.0 0.0 0.00 0.00 0.00 36 1009.5
20260503174512 18 229 0.0 0.0 0.00 0.00 0.00 39 1009.9
20260503173007 18 229 0.0 0.0 0.00 0.00 0.00 37 1010.2
20260503171510 18 229 0.0 0.0 0.00 0.00 0.00 37 1010.5
20260503081539 6 229 0.0 0.0 0.00 0.00 0.00 72 1011.8